Location: Gajan
(43.0218°N, 1.1244°E)
Time: 16:27:28
(UTC+00:00)

USA 229 - Pass Details

Date: 22 April 2021
Orbit: 958 x 1254 km, 63.4° (Epoch: 23 April)

Event Time Altitude Azimuth Distance (km) Brightness Sun altitude
Rises 22:16:32 0° 323° (NW) 3,972 7.8 -30.2°
Reaches altitude 10° 22:19:10 10° 325° (NW) 3,051 7.0 -30.4°
Maximum altitude 22:26:33 84° 53° (NE) 1,214 3.8 -31.0°
Enters shadow 22:27:07 78° 116° (ESE) 1,236 3.8 -31.0°
